Time,TemperatureF,DewpointF,PressureIn,WindDirection,WindDirectionDegrees,WindSpeedMPH,WindSpeedGustMPH,Humidity,HourlyPrecipIn,Conditions,Clouds,dailyrainin,SoftwareType,DateUTC
2013-03-08 00:07:00,36.9,20.8,30.09,ENE,68,0.0,0.0,52,0.00,,,0.00,meteohub,2013-03-08 07:07:00,
2013-03-08 00:12:00,36.5,21.0,30.09,WSW,248,0.0,0.0,53,0.00,,,0.00,meteohub,2013-03-08 07:12:00,
2013-03-08 00:17:00,36.3,20.8,30.10,East,90,0.0,0.0,53,0.00,,,0.00,meteohub,2013-03-08 07:17:00,
2013-03-08 00:27:00,35.6,20.1,30.11,WNW,292,0.0,0.0,53,0.00,,,0.00,meteohub,2013-03-08 07:27:00,
2013-03-08 00:32:00,35.8,20.8,30.10,WNW,292,0.0,0.0,54,0.00,,,0.00,meteohub,2013-03-08 07:32:00,
2013-03-08 00:37:00,36.0,21.4,30.10,North,0,0.0,0.0,55,0.00,,,0.00,meteohub,2013-03-08 07:37:00,
2013-03-08 00:42:00,36.0,21.4,30.10,NNE,22,0.0,0.0,55,0.00,,,0.00,meteohub,2013-03-08 07:42:00,
2013-03-08 00:47:00,35.6,20.7,30.11,NNE,22,0.0,0.0,54,0.00,,,0.00,meteohub,2013-03-08 07:47:00,
2013-03-08 00:52:00,35.2,20.7,30.11,NNE,22,0.0,0.0,55,0.00,,,0.00,meteohub,2013-03-08 07:52:00,
2013-03-08 00:57:00,35.4,21.4,30.11,SSW,202,0.0,0.0,56,0.00,,,0.00,meteohub,2013-03-08 07:57:00,
2013-03-08 01:02:00,35.4,21.4,30.11,NW,315,0.0,0.0,56,0.00,,,0.00,meteohub,2013-03-08 08:02:00,
2013-03-08 01:07:00,35.4,21.7,30.11,NNE,22,0.0,0.0,57,0.00,,,0.00,meteohub,2013-03-08 08:07:00,
2013-03-08 01:12:00,35.2,21.2,30.11,NNE,22,0.0,0.0,56,0.00,,,0.00,meteohub,2013-03-08 08:12:00,
2013-03-08 01:17:00,34.9,20.8,30.12,NW,315,0.0,0.0,56,0.00,,,0.00,meteohub,2013-03-08 08:17:00,
2013-03-08 01:22:00,35.1,21.7,30.11,WNW,292,0.0,2.0,58,0.00,,,0.00,meteohub,2013-03-08 08:22:00,
2013-03-08 01:27:00,35.1,23.0,30.11,NNE,22,0.0,4.0,61,0.00,,,0.00,meteohub,2013-03-08 08:27:00,
2013-03-08 01:32:00,34.5,21.4,30.12,ENE,68,0.0,4.0,58,0.00,,,0.00,meteohub,2013-03-08 08:32:00,
2013-03-08 01:37:00,34.3,21.2,30.12,ENE,68,0.0,2.0,58,0.00,,,0.00,meteohub,2013-03-08 08:37:00,
2013-03-08 01:42:00,34.0,21.2,30.12,ENE,68,0.0,0.0,59,0.00,,,0.00,meteohub,2013-03-08 08:42:00,
2013-03-08 01:47:00,34.0,21.6,30.09,ENE,68,0.0,0.0,60,0.00,,,0.00,meteohub,2013-03-08 08:47:00,
2013-03-08 01:52:00,33.6,21.2,30.09,ENE,68,0.0,0.0,60,0.00,,,0.00,meteohub,2013-03-08 08:52:00,
2013-03-08 01:57:00,33.3,20.8,30.10,ENE,68,0.0,0.0,60,0.00,,,0.00,meteohub,2013-03-08 08:57:00,
2013-03-08 02:02:00,33.1,21.2,30.10,ENE,68,0.0,0.0,61,0.00,,,0.00,meteohub,2013-03-08 09:02:00,
2013-03-08 02:07:00,32.7,20.8,30.10,ENE,68,0.0,0.0,61,0.00,,,0.00,meteohub,2013-03-08 09:07:00,
2013-03-08 02:12:00,32.7,20.8,30.10,ENE,68,0.0,0.0,61,0.00,,,0.00,meteohub,2013-03-08 09:12:00,
2013-03-08 02:17:00,32.5,21.0,30.11,ENE,68,0.0,0.0,62,0.00,,,0.00,meteohub,2013-03-08 09:17:00,
2013-03-08 02:22:00,32.4,20.8,30.11,ENE,68,0.0,0.0,62,0.00,,,0.00,meteohub,2013-03-08 09:22:00,
2013-03-08 02:27:00,32.2,21.0,30.11,ENE,68,0.0,0.0,63,0.00,,,0.00,meteohub,2013-03-08 09:27:00,
2013-03-08 02:32:00,31.8,21.4,30.12,ENE,68,0.0,0.0,65,0.00,,,0.00,meteohub,2013-03-08 09:32:00,
2013-03-08 02:37:00,31.1,19.9,30.12,ESE,112,0.0,2.0,63,0.00,,,0.00,meteohub,2013-03-08 09:37:00,
2013-03-08 02:42:00,31.1,19.9,30.12,ESE,112,0.0,4.0,63,0.00,,,0.00,meteohub,2013-03-08 09:42:00,
2013-03-08 02:47:00,31.5,21.4,30.12,NNW,338,0.0,4.0,66,0.00,,,0.00,meteohub,2013-03-08 09:47:00,
2013-03-08 02:52:00,31.6,21.9,30.12,NNW,338,0.0,3.0,67,0.00,,,0.00,meteohub,2013-03-08 09:52:00,
2013-03-08 02:57:00,31.6,21.9,30.12,NNW,338,0.0,2.0,67,0.00,,,0.00,meteohub,2013-03-08 09:57:00,
2013-03-08 03:02:00,31.5,21.4,30.12,NNW,338,0.0,2.0,66,0.00,,,0.00,meteohub,2013-03-08 10:02:00,
2013-03-08 03:07:00,31.1,21.4,30.12,NNW,338,0.0,0.0,67,0.00,,,0.00,meteohub,2013-03-08 10:07:00,
2013-03-08 03:12:00,30.9,20.8,30.13,NNW,338,0.0,0.0,66,0.00,,,0.00,meteohub,2013-03-08 10:12:00,
2013-03-08 03:17:00,30.7,21.0,30.13,NNW,338,0.0,0.0,67,0.00,,,0.00,meteohub,2013-03-08 10:17:00,
2013-03-08 03:22:00,30.6,21.0,30.13,NNW,338,0.0,0.0,67,0.00,,,0.00,meteohub,2013-03-08 10:22:00,
2013-03-08 03:27:00,30.4,20.8,30.13,NNW,338,0.0,0.0,67,0.00,,,0.00,meteohub,2013-03-08 10:27:00,
2013-03-08 03:32:00,30.4,21.0,30.13,NNW,338,0.0,0.0,68,0.00,,,0.00,meteohub,2013-03-08 10:32:00,
2013-03-08 03:37:00,30.4,21.0,30.13,WNW,292,0.0,0.0,68,0.00,,,0.00,meteohub,2013-03-08 10:37:00,
2013-03-08 03:42:00,30.2,21.2,30.14,West,270,0.0,0.0,69,0.00,,,0.00,meteohub,2013-03-08 10:42:00,
2013-03-08 03:47:00,30.2,21.2,30.14,West,270,0.0,0.0,69,0.00,,,0.00,meteohub,2013-03-08 10:47:00,
2013-03-08 03:52:00,30.0,21.7,30.14,West,270,0.0,0.0,71,0.00,,,0.00,meteohub,2013-03-08 10:52:00,
2013-03-08 03:57:00,29.8,21.0,30.14,West,270,0.0,0.0,69,0.00,,,0.00,meteohub,2013-03-08 10:57:00,
2013-03-08 04:02:00,29.8,21.2,30.14,West,270,0.0,0.0,70,0.00,,,0.00,meteohub,2013-03-08 11:02:00,
2013-03-08 04:07:00,29.8,21.2,30.14,West,270,0.0,0.0,70,0.00,,,0.00,meteohub,2013-03-08 11:07:00,
2013-03-08 04:12:00,29.8,21.2,30.14,West,270,0.0,0.0,70,0.00,,,0.00,meteohub,2013-03-08 11:12:00,
2013-03-08 04:17:00,29.8,21.2,30.14,West,270,0.0,0.0,70,0.00,,,0.00,meteohub,2013-03-08 11:17:00,
2013-03-08 04:22:00,29.8,21.2,30.14,West,270,0.0,0.0,70,0.00,,,0.00,meteohub,2013-03-08 11:22:00,
2013-03-08 04:27:00,29.8,21.6,30.14,West,270,0.0,0.0,71,0.00,,,0.00,meteohub,2013-03-08 11:27:00,
2013-03-08 04:32:00,29.7,21.0,30.14,West,270,0.0,0.0,70,0.00,,,0.00,meteohub,2013-03-08 11:32:00,
2013-03-08 04:37:00,29.5,20.8,30.14,West,270,0.0,0.0,70,0.00,,,0.00,meteohub,2013-03-08 11:37:00,
2013-03-08 04:42:00,29.5,20.8,30.14,West,270,0.0,1.0,70,0.00,,,0.00,meteohub,2013-03-08 11:42:00,
2013-03-08 04:47:00,29.7,21.4,30.14,West,270,0.0,1.0,71,0.00,,,0.00,meteohub,2013-03-08 11:47:00,
2013-03-08 04:52:00,29.5,21.6,30.14,West,270,0.0,1.0,72,0.00,,,0.00,meteohub,2013-03-08 11:52:00,
2013-03-08 04:57:00,29.5,21.2,30.14,West,270,0.0,0.0,71,0.00,,,0.00,meteohub,2013-03-08 11:57:00,
2013-03-08 05:02:00,29.5,21.2,30.14,West,270,0.0,0.0,71,0.00,,,0.00,meteohub,2013-03-08 12:02:00,
2013-03-08 05:07:00,29.5,21.2,30.14,West,270,0.0,0.0,71,0.00,,,0.00,meteohub,2013-03-08 12:07:00,
2013-03-08 05:12:00,29.5,21.9,30.14,West,270,0.0,0.0,73,0.00,,,0.00,meteohub,2013-03-08 12:12:00,
2013-03-08 05:17:00,29.5,21.6,30.14,West,270,0.0,0.0,72,0.00,,,0.00,meteohub,2013-03-08 12:17:00,
2013-03-08 05:22:00,29.7,21.7,30.14,West,270,0.0,0.0,72,0.00,,,0.00,meteohub,2013-03-08 12:22:00,
2013-03-08 05:27:00,29.7,21.7,30.14,West,270,0.0,0.0,72,0.00,,,0.00,meteohub,2013-03-08 12:27:00,
2013-03-08 05:32:00,29.8,21.9,30.14,North,0,0.0,0.0,72,0.00,,,0.00,meteohub,2013-03-08 12:32:00,
2013-03-08 05:37:00,29.7,21.7,30.14,WNW,292,0.0,1.0,72,0.00,,,0.00,meteohub,2013-03-08 12:37:00,
2013-03-08 05:42:00,30.2,22.6,30.14,NNW,338,1.0,3.0,73,0.00,,,0.00,meteohub,2013-03-08 12:42:00,
2013-03-08 05:47:00,30.7,23.7,30.13,NNE,22,2.0,4.0,75,0.00,,,0.00,meteohub,2013-03-08 12:47:00,
2013-03-08 05:52:00,31.1,24.4,30.12,NNW,338,3.0,4.0,76,0.00,,,0.00,meteohub,2013-03-08 12:52:00,
2013-03-08 05:57:00,31.5,24.8,30.12,NW,315,3.0,4.0,76,0.00,,,0.00,meteohub,2013-03-08 12:57:00,
2013-03-08 06:02:00,31.6,25.3,30.12,WNW,292,1.0,6.0,77,0.00,,,0.00,meteohub,2013-03-08 13:02:00,
2013-03-08 06:07:00,31.6,25.3,30.12,NNE,22,0.0,6.0,77,0.00,,,0.00,meteohub,2013-03-08 13:07:00,
2013-03-08 06:12:00,31.8,25.2,30.12,ENE,68,0.0,6.0,76,0.00,,,0.00,meteohub,2013-03-08 13:12:00,
2013-03-08 06:17:00,31.6,24.6,30.12,WSW,248,0.0,6.0,75,0.00,,,0.00,meteohub,2013-03-08 13:17:00,
2013-03-08 06:22:00,31.5,24.4,30.12,WNW,292,0.0,3.0,75,0.00,,,0.00,meteohub,2013-03-08 13:22:00,
2013-03-08 06:27:00,31.5,24.1,30.12,WSW,248,0.0,3.0,74,0.00,,,0.00,meteohub,2013-03-08 13:27:00,
2013-03-08 06:32:00,31.5,24.1,30.12,WSW,248,0.0,3.0,74,0.00,,,0.00,meteohub,2013-03-08 13:32:00,
2013-03-08 06:37:00,31.3,24.6,30.12,NNW,338,0.0,2.0,76,0.00,,,0.00,meteohub,2013-03-08 13:37:00,
2013-03-08 06:42:00,31.5,24.4,30.12,SW,225,2.0,3.0,75,0.00,,,0.00,meteohub,2013-03-08 13:42:00,
2013-03-08 06:47:00,31.5,24.4,30.12,NE,45,0.0,4.0,75,0.00,,,0.00,meteohub,2013-03-08 13:47:00,
2013-03-08 06:52:00,31.5,24.4,30.12,NNE,22,0.0,4.0,75,0.00,,,0.00,meteohub,2013-03-08 13:52:00,
2013-03-08 06:57:00,31.6,24.6,30.12,ESE,112,0.0,3.0,75,0.00,,,0.00,meteohub,2013-03-08 13:57:00,
2013-03-08 07:07:00,32.0,25.0,30.15,NW,315,0.0,3.0,75,0.00,,,0.00,meteohub,2013-03-08 14:07:00,
2013-03-08 07:12:00,32.4,25.3,30.14,WNW,292,0.0,0.0,75,0.00,,,0.00,meteohub,2013-03-08 14:12:00,
2013-03-08 07:22:00,33.3,26.6,30.10,WNW,292,0.0,4.0,76,0.00,,,0.00,meteohub,2013-03-08 14:22:00,
2013-03-08 07:27:00,33.6,27.0,30.09,North,0,4.0,4.0,76,0.00,,,0.00,meteohub,2013-03-08 14:27:00,
2013-03-08 07:37:00,34.0,27.0,30.09,NNW,338,0.0,5.0,75,0.00,,,0.00,meteohub,2013-03-08 14:37:00,
2013-03-08 07:42:00,34.3,27.0,30.09,WNW,292,0.0,5.0,74,0.00,,,0.00,meteohub,2013-03-08 14:42:00,
2013-03-08 07:47:00,34.3,26.6,30.09,NNE,22,4.0,5.0,73,0.00,,,0.00,meteohub,2013-03-08 14:47:00,
2013-03-08 07:52:00,34.3,26.6,30.09,NNE,22,0.0,5.0,73,0.00,,,0.00,meteohub,2013-03-08 14:52:00,
2013-03-08 08:02:00,34.7,26.6,30.08,NNE,22,1.0,5.0,72,0.00,,,0.00,meteohub,2013-03-08 15:02:00,
2013-03-08 08:07:00,34.9,26.8,30.08,NNW,338,0.0,5.0,72,0.00,,,0.00,meteohub,2013-03-08 15:07:00,
2013-03-08 08:12:00,35.1,26.6,30.08,ESE,112,0.0,5.0,71,0.00,,,0.00,meteohub,2013-03-08 15:12:00,
2013-03-08 08:17:00,35.1,26.6,30.08,NNW,338,2.0,4.0,71,0.00,,,0.00,meteohub,2013-03-08 15:17:00,
2013-03-08 08:22:00,35.2,26.8,30.07,WNW,292,0.0,4.0,71,0.00,,,0.00,meteohub,2013-03-08 15:22:00,
2013-03-08 08:27:00,36.1,27.7,30.06,NNW,338,7.0,7.0,71,0.00,,,0.00,meteohub,2013-03-08 15:27:00,
2013-03-08 08:32:00,36.3,27.5,30.06,NW,315,1.0,7.0,70,0.00,,,0.00,meteohub,2013-03-08 15:32:00,
2013-03-08 08:37:00,36.7,27.5,30.06,NNW,338,3.0,7.0,69,0.00,,,0.00,meteohub,2013-03-08 15:37:00,
2013-03-08 08:42:00,37.0,27.5,30.05,NNW,338,3.0,7.0,68,0.00,,,0.00,meteohub,2013-03-08 15:42:00,
2013-03-08 08:47:00,37.4,27.5,30.05,NNW,338,3.0,6.0,67,0.00,,,0.00,meteohub,2013-03-08 15:47:00,
2013-03-08 08:52:00,37.6,27.3,30.04,NNW,338,3.0,6.0,66,0.00,,,0.00,meteohub,2013-03-08 15:52:00,
2013-03-08 08:57:00,37.8,27.1,30.04,NNE,22,3.0,6.0,65,0.00,,,0.00,meteohub,2013-03-08 15:57:00,
2013-03-08 09:02:00,37.9,27.0,30.04,WNW,292,0.0,6.0,64,0.00,,,0.00,meteohub,2013-03-08 16:02:00,
2013-03-08 09:07:00,38.3,27.1,30.04,NE,45,0.0,6.0,64,0.00,,,0.00,meteohub,2013-03-08 16:07:00,
2013-03-08 09:12:00,38.5,27.0,30.04,NW,315,0.0,5.0,63,0.00,,,0.00,meteohub,2013-03-08 16:12:00,
2013-03-08 09:17:00,38.5,26.6,30.04,WNW,292,4.0,6.0,62,0.00,,,0.00,meteohub,2013-03-08 16:17:00,
2013-03-08 09:22:00,38.7,26.8,30.03,North,0,0.0,6.0,62,0.00,,,0.00,meteohub,2013-03-08 16:22:00,
2013-03-08 09:27:00,39.0,27.1,30.03,WNW,292,2.0,5.0,62,0.00,,,0.00,meteohub,2013-03-08 16:27:00,
2013-03-08 09:37:00,39.4,27.1,30.02,NNW,338,1.0,5.0,61,0.00,,,0.00,meteohub,2013-03-08 16:37:00,
2013-03-08 09:42:00,39.9,27.1,30.02,NE,45,0.0,4.0,60,0.00,,,0.00,meteohub,2013-03-08 16:42:00,
2013-03-08 09:47:00,40.3,27.5,30.01,NNW,338,0.0,4.0,60,0.00,,,0.00,meteohub,2013-03-08 16:47:00,
2013-03-08 09:52:00,40.6,27.9,30.01,NNE,22,0.0,4.0,60,0.00,,,0.00,meteohub,2013-03-08 16:52:00,
2013-03-08 09:57:00,40.8,27.1,30.01,WNW,292,5.0,5.0,58,0.00,,,0.00,meteohub,2013-03-08 16:57:00,
2013-03-08 10:02:00,41.0,27.0,29.97,NW,315,0.0,6.0,57,0.00,,,0.00,meteohub,2013-03-08 17:02:00,
2013-03-08 10:07:00,41.0,27.0,29.97,NNW,338,2.0,6.0,57,0.00,,,0.00,meteohub,2013-03-08 17:07:00,
2013-03-08 10:12:00,41.2,27.1,29.97,NNW,338,0.0,6.0,57,0.00,,,0.00,meteohub,2013-03-08 17:12:00,
2013-03-08 10:17:00,41.2,27.1,29.97,SSE,158,3.0,4.0,57,0.00,,,0.00,meteohub,2013-03-08 17:17:00,
2013-03-08 10:22:00,41.0,26.6,29.97,NNW,338,5.0,5.0,56,0.00,,,0.00,meteohub,2013-03-08 17:22:00,
2013-03-08 10:27:00,41.0,26.6,29.97,NW,315,2.0,6.0,56,0.00,,,0.00,meteohub,2013-03-08 17:27:00,
2013-03-08 10:32:00,41.2,26.8,29.97,NNE,22,2.0,6.0,56,0.00,,,0.00,meteohub,2013-03-08 17:32:00,
2013-03-08 10:37:00,41.7,27.1,29.96,NNW,338,8.0,8.0,56,0.00,,,0.00,meteohub,2013-03-08 17:37:00,
2013-03-08 10:42:00,41.7,26.8,29.96,WSW,248,4.0,8.0,55,0.00,,,0.00,meteohub,2013-03-08 17:42:00,
2013-03-08 10:52:00,42.3,27.3,29.95,NNW,338,2.0,8.0,55,0.00,,,0.00,meteohub,2013-03-08 17:52:00,
2013-03-08 10:57:00,42.6,27.1,29.95,NNW,338,4.0,6.0,54,0.00,,,0.00,meteohub,2013-03-08 17:57:00,
2013-03-08 11:02:00,42.4,27.0,29.95,ENE,68,1.0,5.0,54,0.00,,,0.00,meteohub,2013-03-08 18:02:00,
2013-03-08 11:12:00,43.0,27.1,29.94,NNW,338,0.0,4.0,53,0.00,,,0.00,meteohub,2013-03-08 18:12:00,
2013-03-08 11:17:00,43.3,27.3,29.94,NW,315,2.0,4.0,53,0.00,,,0.00,meteohub,2013-03-08 18:17:00,
2013-03-08 11:27:00,43.5,27.1,29.94,NNW,338,3.0,3.0,52,0.00,,,0.00,meteohub,2013-03-08 18:27:00,
2013-03-08 11:32:00,43.7,27.3,29.90,ENE,68,0.0,3.0,52,0.00,,,0.00,meteohub,2013-03-08 18:32:00,
2013-03-08 11:37:00,44.2,27.7,29.89,WNW,292,0.0,4.0,52,0.00,,,0.00,meteohub,2013-03-08 18:37:00,
2013-03-08 11:42:00,44.4,27.5,29.89,WSW,248,0.0,4.0,51,0.00,,,0.00,meteohub,2013-03-08 18:42:00,
2013-03-08 11:47:00,44.6,27.1,29.89,NNW,338,0.0,4.0,50,0.00,,,0.00,meteohub,2013-03-08 18:47:00,
2013-03-08 11:52:00,45.0,27.5,29.88,NNW,338,0.0,0.0,50,0.00,,,0.00,meteohub,2013-03-08 18:52:00,
2013-03-08 12:02:00,45.9,27.9,29.88,NNE,22,1.0,4.0,49,0.00,,,0.00,meteohub,2013-03-08 19:02:00,
2013-03-08 12:07:00,46.2,28.2,29.87,NNE,22,0.0,4.0,49,0.00,,,0.00,meteohub,2013-03-08 19:07:00,
2013-03-08 12:12:00,46.4,28.4,29.87,East,90,0.0,3.0,49,0.00,,,0.00,meteohub,2013-03-08 19:12:00,
2013-03-08 12:17:00,46.8,28.2,29.86,WNW,292,0.0,5.0,48,0.00,,,0.00,meteohub,2013-03-08 19:17:00,
2013-03-08 12:22:00,46.8,27.7,29.86,NNW,338,0.0,5.0,47,0.00,,,0.00,meteohub,2013-03-08 19:22:00,
2013-03-08 12:32:00,47.1,28.0,29.83,NNE,22,2.0,5.0,47,0.00,,,0.00,meteohub,2013-03-08 19:32:00,
2013-03-08 12:37:00,47.3,28.2,29.82,WNW,292,4.0,4.0,47,0.00,,,0.00,meteohub,2013-03-08 19:37:00,
2013-03-08 12:42:00,47.8,28.6,29.82,ENE,68,0.0,6.0,47,0.00,,,0.00,meteohub,2013-03-08 19:42:00,
2013-03-08 12:47:00,48.2,28.4,29.81,NE,45,2.0,6.0,46,0.00,,,0.00,meteohub,2013-03-08 19:47:00,
2013-03-08 12:52:00,48.2,27.9,29.81,NNE,22,0.0,6.0,45,0.00,,,0.00,meteohub,2013-03-08 19:52:00,
2013-03-08 12:57:00,48.0,27.1,29.81,NNE,22,0.0,3.0,44,0.00,,,0.00,meteohub,2013-03-08 19:57:00,
2013-03-08 13:02:00,48.0,27.1,29.81,WNW,292,2.0,3.0,44,0.00,,,0.00,meteohub,2013-03-08 20:02:00,
2013-03-08 13:07:00,47.8,27.0,29.82,WSW,248,3.0,3.0,44,0.00,,,0.00,meteohub,2013-03-08 20:07:00,
2013-03-08 13:12:00,48.4,27.5,29.81,SSE,158,0.0,4.0,44,0.00,,,0.00,meteohub,2013-03-08 20:12:00,
2013-03-08 13:17:00,48.6,27.7,29.77,West,270,4.0,4.0,44,0.00,,,0.00,meteohub,2013-03-08 20:17:00,
2013-03-08 13:22:00,48.7,26.8,29.77,NW,315,0.0,4.0,42,0.00,,,0.00,meteohub,2013-03-08 20:22:00,
2013-03-08 13:27:00,48.6,26.6,29.77,WSW,248,0.0,4.0,42,0.00,,,0.00,meteohub,2013-03-08 20:27:00,
2013-03-08 13:32:00,48.6,26.6,29.77,NNE,22,0.0,4.0,42,0.00,,,0.00,meteohub,2013-03-08 20:32:00,
2013-03-08 13:37:00,48.7,26.8,29.77,ESE,112,0.0,4.0,42,0.00,,,0.00,meteohub,2013-03-08 20:37:00,
2013-03-08 13:42:00,48.7,26.1,29.77,NNW,338,4.0,4.0,41,0.00,,,0.00,meteohub,2013-03-08 20:42:00,
2013-03-08 13:47:00,48.7,25.5,29.77,ENE,68,0.0,5.0,40,0.00,,,0.00,meteohub,2013-03-08 20:47:00,
2013-03-08 13:52:00,49.5,26.8,29.76,SW,225,0.0,5.0,41,0.00,,,0.00,meteohub,2013-03-08 20:52:00,
2013-03-08 13:57:00,49.8,27.1,29.76,SSW,202,2.0,5.0,41,0.00,,,0.00,meteohub,2013-03-08 20:57:00,
2013-03-08 14:02:00,49.8,26.6,29.76,WNW,292,0.0,6.0,40,0.00,,,0.00,meteohub,2013-03-08 21:02:00,
2013-03-08 14:07:00,50.4,27.7,29.75,NNW,338,0.0,6.0,41,0.00,,,0.00,meteohub,2013-03-08 21:07:00,
2013-03-08 14:17:00,50.9,27.5,29.75,NW,315,2.0,3.0,40,0.00,,,0.00,meteohub,2013-03-08 21:17:00,
2013-03-08 14:27:00,50.5,26.6,29.75,ESE,112,0.0,4.0,39,0.00,,,0.00,meteohub,2013-03-08 21:27:00,
2013-03-08 14:32:00,50.2,26.2,29.75,WNW,292,4.0,6.0,39,0.00,,,0.00,meteohub,2013-03-08 21:32:00,
2013-03-08 14:37:00,49.6,25.7,29.76,NNW,338,3.0,6.0,39,0.00,,,0.00,meteohub,2013-03-08 21:37:00,
2013-03-08 14:42:00,49.6,25.7,29.76,NNW,338,1.0,6.0,39,0.00,,,0.00,meteohub,2013-03-08 21:42:00,
2013-03-08 14:47:00,49.6,26.4,29.73,West,270,0.0,5.0,40,0.00,,,0.00,meteohub,2013-03-08 21:47:00,
2013-03-08 14:52:00,49.6,25.7,29.73,NNE,22,3.0,5.0,39,0.00,,,0.00,meteohub,2013-03-08 21:52:00,
2013-03-08 14:57:00,49.5,26.2,29.73,NNW,338,2.0,4.0,40,0.00,,,0.00,meteohub,2013-03-08 21:57:00,
2013-03-08 15:02:00,48.9,25.7,29.73,SW,225,3.0,7.0,40,0.00,,,0.00,meteohub,2013-03-08 22:02:00,
2013-03-08 15:07:00,48.9,26.2,29.73,NNW,338,2.0,7.0,41,0.00,,,0.00,meteohub,2013-03-08 22:07:00,
2013-03-08 15:12:00,49.1,26.4,29.73,ENE,68,0.0,7.0,41,0.00,,,0.00,meteohub,2013-03-08 22:12:00,
2013-03-08 15:17:00,48.9,26.2,29.73,NNE,22,1.0,5.0,41,0.00,,,0.00,meteohub,2013-03-08 22:17:00,
2013-03-08 15:22:00,48.7,26.1,29.73,NNE,22,0.0,5.0,41,0.00,,,0.00,meteohub,2013-03-08 22:22:00,
2013-03-08 15:27:00,48.7,26.1,29.73,NNE,22,1.0,4.0,41,0.00,,,0.00,meteohub,2013-03-08 22:27:00,
2013-03-08 15:32:00,48.9,26.2,29.73,NNE,22,1.0,4.0,41,0.00,,,0.00,meteohub,2013-03-08 22:32:00,
2013-03-08 15:37:00,49.1,25.9,29.73,NNE,22,3.0,4.0,40,0.00,,,0.00,meteohub,2013-03-08 22:37:00,
2013-03-08 15:42:00,49.6,26.4,29.73,NNW,338,2.0,4.0,40,0.00,,,0.00,meteohub,2013-03-08 22:42:00,
2013-03-08 15:47:00,49.8,26.6,29.72,NNE,22,0.0,4.0,40,0.00,,,0.00,meteohub,2013-03-08 22:47:00,
2013-03-08 15:52:00,50.0,26.1,29.72,NNE,22,0.0,4.0,39,0.00,,,0.00,meteohub,2013-03-08 22:52:00,
2013-03-08 15:57:00,50.2,26.2,29.72,NNW,338,3.0,4.0,39,0.00,,,0.00,meteohub,2013-03-08 22:57:00,
2013-03-08 16:02:00,49.8,25.9,29.72,West,270,0.0,4.0,39,0.00,,,0.00,meteohub,2013-03-08 23:02:00,
2013-03-08 16:07:00,50.0,26.1,29.72,WSW,248,0.0,4.0,39,0.00,,,0.00,meteohub,2013-03-08 23:07:00,
2013-03-08 16:12:00,50.0,26.1,29.72,NNW,338,2.0,4.0,39,0.00,,,0.00,meteohub,2013-03-08 23:12:00,
2013-03-08 16:17:00,49.8,25.9,29.72,East,90,0.0,2.0,39,0.00,,,0.00,meteohub,2013-03-08 23:17:00,
2013-03-08 16:22:00,49.6,25.7,29.73,NE,45,2.0,2.0,39,0.00,,,0.00,meteohub,2013-03-08 23:22:00,
2013-03-08 16:27:00,49.3,25.3,29.73,NNE,22,1.0,3.0,39,0.00,,,0.00,meteohub,2013-03-08 23:27:00,
2013-03-08 16:32:00,48.9,25.7,29.73,ENE,68,2.0,4.0,40,0.00,,,0.00,meteohub,2013-03-08 23:32:00,
2013-03-08 16:37:00,48.7,25.5,29.73,NNW,338,0.0,4.0,40,0.00,,,0.00,meteohub,2013-03-08 23:37:00,
2013-03-08 16:42:00,48.4,25.9,29.74,ENE,68,3.0,4.0,41,0.00,,,0.00,meteohub,2013-03-08 23:42:00,
2013-03-08 16:47:00,47.8,25.9,29.74,NNE,22,0.0,3.0,42,0.00,,,0.00,meteohub,2013-03-08 23:47:00,
2013-03-08 16:52:00,47.5,26.1,29.75,NE,45,0.0,4.0,43,0.00,,,0.00,meteohub,2013-03-08 23:52:00,
2013-03-08 16:57:00,47.3,27.1,29.75,NNE,22,0.0,4.0,45,0.00,,,0.00,meteohub,2013-03-08 23:57:00,
2013-03-08 17:02:00,47.1,27.0,29.75,NNE,22,0.0,4.0,45,0.00,,,0.00,meteohub,2013-03-09 00:02:00,
2013-03-08 17:07:00,46.8,27.1,29.76,NE,45,3.0,4.0,46,0.00,,,0.00,meteohub,2013-03-09 00:07:00,
2013-03-08 17:12:00,46.4,27.3,29.76,ENE,68,0.0,3.0,47,0.00,,,0.00,meteohub,2013-03-09 00:12:00,
2013-03-08 17:17:00,46.0,27.0,29.76,NE,45,3.0,4.0,47,0.00,,,0.00,meteohub,2013-03-09 00:17:00,
2013-03-08 17:22:00,45.5,27.5,29.77,NNW,338,6.0,6.0,49,0.00,,,0.00,meteohub,2013-03-09 00:22:00,
2013-03-08 17:27:00,44.8,27.3,29.78,NNE,22,3.0,6.0,50,0.00,,,0.00,meteohub,2013-03-09 00:27:00,
2013-03-08 17:32:00,44.2,26.8,29.75,ENE,68,1.0,6.0,50,0.00,,,0.00,meteohub,2013-03-09 00:32:00,
2013-03-08 17:37:00,44.1,27.1,29.75,ENE,68,0.0,6.0,51,0.00,,,0.00,meteohub,2013-03-09 00:37:00,
2013-03-08 17:42:00,43.5,26.6,29.76,ENE,68,0.0,3.0,51,0.00,,,0.00,meteohub,2013-03-09 00:42:00,
2013-03-08 17:47:00,43.2,26.8,29.80,NNE,22,0.0,3.0,52,0.00,,,0.00,meteohub,2013-03-09 00:47:00,
2013-03-08 17:52:00,42.8,26.4,29.80,ENE,68,0.0,4.0,52,0.00,,,0.00,meteohub,2013-03-09 00:52:00,
2013-03-08 17:57:00,42.4,26.6,29.81,NNE,22,1.0,4.0,53,0.00,,,0.00,meteohub,2013-03-09 00:57:00,
2013-03-08 18:02:00,42.3,26.8,29.81,NNW,338,0.0,4.0,54,0.00,,,0.00,meteohub,2013-03-09 01:02:00,
2013-03-08 18:07:00,42.1,27.1,29.81,NNE,22,0.0,4.0,55,0.00,,,0.00,meteohub,2013-03-09 01:07:00,
2013-03-08 18:12:00,41.7,26.4,29.82,NNE,22,0.0,4.0,54,0.00,,,0.00,meteohub,2013-03-09 01:12:00,
2013-03-08 18:17:00,41.5,26.6,29.82,NNE,22,0.0,2.0,55,0.00,,,0.00,meteohub,2013-03-09 01:17:00,
2013-03-08 18:22:00,41.2,26.2,29.82,ENE,68,1.0,2.0,55,0.00,,,0.00,meteohub,2013-03-09 01:22:00,
2013-03-08 18:27:00,41.0,26.6,29.82,NNE,22,0.0,4.0,56,0.00,,,0.00,meteohub,2013-03-09 01:27:00,
2013-03-08 18:32:00,40.6,26.2,29.83,NNW,338,0.0,4.0,56,0.00,,,0.00,meteohub,2013-03-09 01:32:00,
2013-03-08 18:37:00,40.5,26.4,29.83,North,0,0.0,4.0,57,0.00,,,0.00,meteohub,2013-03-09 01:37:00,
2013-03-08 18:42:00,40.3,26.2,29.83,NNW,338,0.0,3.0,57,0.00,,,0.00,meteohub,2013-03-09 01:42:00,
2013-03-08 18:47:00,40.1,26.1,29.83,North,0,0.0,3.0,57,0.00,,,0.00,meteohub,2013-03-09 01:47:00,
2013-03-08 18:52:00,39.9,25.9,29.84,NNE,22,0.0,3.0,57,0.00,,,0.00,meteohub,2013-03-09 01:52:00,
2013-03-08 18:57:00,39.7,26.2,29.84,NNE,22,0.0,2.0,58,0.00,,,0.00,meteohub,2013-03-09 01:57:00,
2013-03-08 19:02:00,39.7,26.2,29.84,NNW,338,0.0,1.0,58,0.00,,,0.00,meteohub,2013-03-09 02:02:00,
2013-03-08 19:07:00,39.6,26.4,29.84,NNE,22,0.0,1.0,59,0.00,,,0.00,meteohub,2013-03-09 02:07:00,
2013-03-08 19:12:00,39.4,26.2,29.84,NNE,22,0.0,1.0,59,0.00,,,0.00,meteohub,2013-03-09 02:12:00,
2013-03-08 19:17:00,39.2,26.1,29.85,NNE,22,0.0,1.0,59,0.00,,,0.00,meteohub,2013-03-09 02:17:00,
2013-03-08 19:22:00,39.2,26.6,29.85,WNW,292,0.0,0.0,60,0.00,,,0.00,meteohub,2013-03-09 02:22:00,
2013-03-08 19:27:00,39.0,26.8,29.85,ENE,68,0.0,2.0,61,0.00,,,0.00,meteohub,2013-03-09 02:27:00,
2013-03-08 19:32:00,38.8,26.6,29.85,ENE,68,0.0,2.0,61,0.00,,,0.00,meteohub,2013-03-09 02:32:00,
2013-03-08 19:37:00,38.7,26.4,29.85,ENE,68,0.0,2.0,61,0.00,,,0.00,meteohub,2013-03-09 02:37:00,
2013-03-08 19:42:00,38.7,26.8,29.85,NNE,22,0.0,0.0,62,0.00,,,0.00,meteohub,2013-03-09 02:42:00,
2013-03-08 19:47:00,38.5,27.0,29.82,NNW,338,1.0,0.0,63,0.00,,,0.00,meteohub,2013-03-09 02:47:00,
2013-03-08 19:52:00,38.7,27.1,29.82,WNW,292,2.0,2.0,63,0.00,,,0.00,meteohub,2013-03-09 02:52:00,
2013-03-08 19:57:00,38.5,28.2,29.82,NE,45,0.0,4.0,66,0.00,,,0.00,meteohub,2013-03-09 02:57:00,
2013-03-08 20:02:00,38.5,27.3,29.86,ENE,68,0.0,4.0,64,0.00,,,0.00,meteohub,2013-03-09 03:02:00,
2013-03-08 20:07:00,38.3,27.7,29.86,ENE,68,0.0,4.0,65,0.00,,,0.00,meteohub,2013-03-09 03:07:00,
2013-03-08 20:12:00,38.1,27.5,29.86,ENE,68,0.0,2.0,65,0.00,,,0.00,meteohub,2013-03-09 03:12:00,
2013-03-08 20:17:00,37.9,27.7,29.86,ENE,68,0.0,0.0,66,0.00,,,0.00,meteohub,2013-03-09 03:17:00,
2013-03-08 20:22:00,37.9,27.7,29.86,North,0,0.0,0.0,66,0.00,,,0.00,meteohub,2013-03-09 03:22:00,
2013-03-08 20:27:00,37.9,27.7,29.86,NNE,22,0.0,0.0,66,0.00,,,0.00,meteohub,2013-03-09 03:27:00,
2013-03-08 20:32:00,37.9,28.0,29.82,NNW,338,0.0,0.0,67,0.00,,,0.00,meteohub,2013-03-09 03:32:00,
2013-03-08 20:37:00,37.9,27.7,29.82,WSW,248,0.0,0.0,66,0.00,,,0.00,meteohub,2013-03-09 03:37:00,
2013-03-08 20:42:00,37.8,27.9,29.83,WNW,292,0.0,0.0,67,0.00,,,0.00,meteohub,2013-03-09 03:42:00,
2013-03-08 20:47:00,37.6,27.7,29.86,ESE,112,0.0,0.0,67,0.00,,,0.00,meteohub,2013-03-09 03:47:00,
2013-03-08 20:52:00,37.4,27.1,29.87,ESE,112,0.0,0.0,66,0.00,,,0.00,meteohub,2013-03-09 03:52:00,
2013-03-08 20:57:00,37.2,27.3,29.87,WNW,292,0.0,0.0,67,0.00,,,0.00,meteohub,2013-03-09 03:57:00,
2013-03-08 21:02:00,37.2,27.7,29.83,WNW,292,0.0,0.0,68,0.00,,,0.00,meteohub,2013-03-09 04:02:00,
2013-03-08 21:07:00,37.2,27.7,29.83,NNE,22,0.0,0.0,68,0.00,,,0.00,meteohub,2013-03-09 04:07:00,
2013-03-08 21:12:00,36.9,27.3,29.84,NNE,22,0.0,0.0,68,0.00,,,0.00,meteohub,2013-03-09 04:12:00,
2013-03-08 21:17:00,36.7,27.5,29.88,NNE,22,0.0,0.0,69,0.00,,,0.00,meteohub,2013-03-09 04:17:00,
2013-03-08 21:22:00,36.7,27.5,29.88,NNE,22,0.0,0.0,69,0.00,,,0.00,meteohub,2013-03-09 04:22:00,
2013-03-08 21:27:00,36.3,27.1,29.88,NNE,22,0.0,0.0,69,0.00,,,0.00,meteohub,2013-03-09 04:27:00,
2013-03-08 21:32:00,36.3,27.5,29.84,NNE,22,0.0,0.0,70,0.00,,,0.00,meteohub,2013-03-09 04:32:00,
2013-03-08 21:37:00,36.1,27.3,29.85,WNW,292,0.0,0.0,70,0.00,,,0.00,meteohub,2013-03-09 04:37:00,
2013-03-08 21:42:00,35.8,27.0,29.85,WNW,292,0.0,0.0,70,0.00,,,0.00,meteohub,2013-03-09 04:42:00,
2013-03-08 21:47:00,35.4,26.6,29.86,WNW,292,0.0,0.0,70,0.00,,,0.00,meteohub,2013-03-09 04:47:00,
2013-03-08 21:52:00,35.2,26.8,29.86,WNW,292,0.0,0.0,71,0.00,,,0.00,meteohub,2013-03-09 04:52:00,
2013-03-08 21:57:00,34.9,26.4,29.86,WNW,292,0.0,0.0,71,0.00,,,0.00,meteohub,2013-03-09 04:57:00,
2013-03-08 22:02:00,34.3,25.9,29.87,WNW,292,0.0,0.0,71,0.00,,,0.00,meteohub,2013-03-09 05:02:00,
2013-03-08 22:07:00,34.0,25.9,29.87,WNW,292,0.0,0.0,72,0.00,,,0.00,meteohub,2013-03-09 05:07:00,
2013-03-08 22:12:00,33.8,25.7,29.87,WNW,292,0.0,0.0,72,0.00,,,0.00,meteohub,2013-03-09 05:12:00,
2013-03-08 22:17:00,33.8,26.1,29.87,WNW,292,0.0,0.0,73,0.00,,,0.00,meteohub,2013-03-09 05:17:00,
2013-03-08 22:22:00,33.8,26.1,29.87,WNW,292,0.0,0.0,73,0.00,,,0.00,meteohub,2013-03-09 05:22:00,
2013-03-08 22:27:00,33.8,26.4,29.87,WNW,292,0.0,0.0,74,0.00,,,0.00,meteohub,2013-03-09 05:27:00,
2013-03-08 22:32:00,33.8,26.4,29.87,WNW,292,0.0,0.0,74,0.00,,,0.00,meteohub,2013-03-09 05:32:00,
2013-03-08 22:37:00,33.8,26.8,29.87,WNW,292,0.0,0.0,75,0.00,,,0.00,meteohub,2013-03-09 05:37:00,
2013-03-08 22:42:00,33.6,26.6,29.88,WNW,292,0.0,0.0,75,0.00,,,0.00,meteohub,2013-03-09 05:42:00,
2013-03-08 22:47:00,33.8,26.8,29.84,NW,315,0.0,0.0,75,0.00,,,0.00,meteohub,2013-03-09 05:47:00,
2013-03-08 22:52:00,34.0,27.5,29.83,NNW,338,0.0,3.0,77,0.00,,,0.00,meteohub,2013-03-09 05:52:00,
2013-03-08 22:57:00,34.0,27.5,29.83,WSW,248,0.0,4.0,77,0.00,,,0.00,meteohub,2013-03-09 05:57:00,
2013-03-08 23:02:00,33.8,27.1,29.84,ESE,112,0.0,4.0,76,0.00,,,0.00,meteohub,2013-03-09 06:02:00,
2013-03-08 23:07:00,33.6,27.0,29.84,NNW,338,1.0,3.0,76,0.00,,,0.00,meteohub,2013-03-09 06:07:00,
2013-03-08 23:12:00,33.6,27.0,29.84,NNW,338,0.0,1.0,76,0.00,,,0.00,meteohub,2013-03-09 06:12:00,
2013-03-08 23:17:00,33.4,26.8,29.84,NNW,338,0.0,1.0,76,0.00,,,0.00,meteohub,2013-03-09 06:17:00,
2013-03-08 23:22:00,33.3,26.6,29.84,NNW,338,0.0,1.0,76,0.00,,,0.00,meteohub,2013-03-09 06:22:00,
2013-03-08 23:27:00,33.3,26.6,29.84,NNW,338,0.0,0.0,76,0.00,,,0.00,meteohub,2013-03-09 06:27:00,
2013-03-08 23:32:00,33.1,26.4,29.85,NNW,338,0.0,0.0,76,0.00,,,0.00,meteohub,2013-03-09 06:32:00,
2013-03-08 23:37:00,33.1,26.6,29.85,NNW,338,0.0,0.0,77,0.00,,,0.00,meteohub,2013-03-09 06:37:00,
2013-03-08 23:42:00,33.1,26.6,29.85,NNW,338,0.0,0.0,77,0.00,,,0.00,meteohub,2013-03-09 06:42:00,
2013-03-08 23:47:00,33.1,26.6,29.81,NNW,338,0.0,0.0,77,0.00,,,0.00,meteohub,2013-03-09 06:47:00,
2013-03-08 23:52:00,33.1,26.6,29.81,NNW,338,0.0,2.0,77,0.00,,,0.00,meteohub,2013-03-09 06:52:00,
2013-03-08 23:57:00,33.1,26.6,29.81,NNW,338,0.0,2.0,77,0.00,,,0.00,meteohub,2013-03-09 06:57:00,